Station Historical Data
Daily Summary for September 5, 2017 Units:  English    Metric   Both
Next Day »
Daily Weekly Monthly Yearly Custom
  High: Low: Average:
Temperature: 84.6 °F 69.2 °F 74.3 °F
Dew Point: 69.0 °F 55.0 °F 61.6 °F
Humidity: 84% 51% 65%
Wind Speed: 16.0mph 0.0mph 2.7mph
Wind Gust: 18.0mph - -
Wind- - SE
Pressure: 29.95 in 29.83 in -
Precipitation: 0.00 in    
Historical Graphs
 
 
Tabular Data for September 5, 2017
Time Temperature Dew Point Pressure Wind Wind Speed Wind Gust Humidity Rainfall Rate (Hourly) solar Conditions
00:00 72.1 °F 55.6 °F 29.83 in SE 2.0 mph 7.0 mph 56% 0.00 in 0.00 W/m2
00:05 72.0 °F 55.5 °F 29.83 in SE 4.0 mph 8.0 mph 56% 0.00 in 0.00 W/m2
00:10 72.0 °F 55.5 °F 29.83 in SE 8.0 mph 9.0 mph 56% 0.00 in 0.00 W/m2
00:15 71.9 °F 55.4 °F 29.83 in SE 6.0 mph 10.0 mph 56% 0.00 in 0.00 W/m2
00:20 71.7 °F 55.2 °F 29.83 in SE 4.0 mph 11.0 mph 56% 0.00 in 0.00 W/m2
00:25 71.6 °F 55.1 °F 29.83 in SE 4.0 mph 13.0 mph 56% 0.00 in 0.00 W/m2
00:30 71.5 °F 55.0 °F 29.83 in Calm   13.0 mph 56% 0.00 in 0.00 W/m2
00:35 71.5 °F 55.5 °F 29.83 in SE 6.0 mph 11.0 mph 57% 0.00 in 0.00 W/m2
00:40 71.4 °F 55.9 °F 29.83 in ESE 9.0 mph 11.0 mph 58% 0.00 in 0.00 W/m2
00:45 71.5 °F 56.4 °F 29.83 in Calm   11.0 mph 59% 0.00 in 0.00 W/m2
00:50 71.5 °F 56.4 °F 29.83 in ESE 2.0 mph 11.0 mph 59% 0.00 in 0.00 W/m2
00:55 71.5 °F 56.9 °F 29.83 in Calm   12.0 mph 60% 0.00 in 0.00 W/m2
01:00 71.5 °F 56.9 °F 29.83 in ESE 9.0 mph 9.0 mph 60% 0.00 in 0.00 W/m2
01:05 71.6 °F 57.0 °F 29.83 in ESE 4.0 mph 9.0 mph 60% 0.00 in 0.00 W/m2
01:10 71.7 °F 57.1 °F 29.83 in ESE 2.0 mph 11.0 mph 60% 0.00 in 0.00 W/m2
01:15 71.7 °F 57.1 °F 29.84 in ESE 2.0 mph 11.0 mph 60% 0.00 in 0.00 W/m2
01:20 71.8 °F 57.2 °F 29.83 in Calm   12.0 mph 60% 0.00 in 0.00 W/m2
01:25 71.9 °F 57.3 °F 29.83 in Calm   11.0 mph 60% 0.00 in 0.00 W/m2
01:30 72.0 °F 57.4 °F 29.83 in Calm   12.0 mph 60% 0.00 in 0.00 W/m2
01:35 72.1 °F 57.5 °F 29.84 in ESE 6.0 mph 13.0 mph 60% 0.00 in 0.00 W/m2
01:40 72.2 °F 57.6 °F 29.83 in ESE 4.0 mph 13.0 mph 60% 0.00 in 0.00 W/m2
01:45 72.2 °F 57.6 °F 29.83 in ESE 5.0 mph 11.0 mph 60% 0.00 in 0.00 W/m2
01:50 72.3 °F 57.7 °F 29.83 in Calm   14.0 mph 60% 0.00 in 0.00 W/m2
01:55 72.4 °F 57.8 °F 29.83 in ESE 2.0 mph 12.0 mph 60% 0.00 in 0.00 W/m2
02:00 72.4 °F 57.8 °F 29.84 in ESE 8.0 mph 12.0 mph 60% 0.00 in 0.00 W/m2
02:05 72.4 °F 57.8 °F 29.84 in Calm   12.0 mph 60% 0.00 in 0.00 W/m2
02:10 72.4 °F 57.8 °F 29.83 in Calm   14.0 mph 60% 0.00 in 0.00 W/m2
02:15 72.4 °F 58.2 °F 29.83 in Calm   8.0 mph 61% 0.00 in 0.00 W/m2
02:20 72.4 °F 58.2 °F 29.84 in Calm   7.0 mph 61% 0.00 in 0.00 W/m2
02:25 72.4 °F 58.2 °F 29.84 in ESE 1.0 mph 7.0 mph 61% 0.00 in 0.00 W/m2
02:30 72.4 °F 58.2 °F 29.84 in Calm   8.0 mph 61% 0.00 in 0.00 W/m2
02:35 72.4 °F 58.2 °F 29.84 in Calm   9.0 mph 61% 0.00 in 0.00 W/m2
02:40 72.5 °F 58.3 °F 29.84 in Calm   8.0 mph 61% 0.00 in 0.00 W/m2
02:45 72.4 °F 58.2 °F 29.84 in ESE 8.0 mph 8.0 mph 61% 0.00 in 0.00 W/m2
02:50 72.4 °F 58.2 °F 29.84 in ESE 4.0 mph 11.0 mph 61% 0.00 in 0.00 W/m2
02:55 72.3 °F 58.1 °F 29.84 in ESE 6.0 mph 8.0 mph 61% 0.00 in 0.00 W/m2
03:00 72.3 °F 58.1 °F 29.84 in Calm   13.0 mph 61% 0.00 in 0.00 W/m2
03:05 72.2 °F 58.0 °F 29.84 in ESE 9.0 mph 9.0 mph 61% 0.00 in 0.00 W/m2
03:10 72.1 °F 57.9 °F 29.84 in Calm   8.0 mph 61% 0.00 in 0.00 W/m2
03:15 72.0 °F 57.8 °F 29.84 in ESE 2.0 mph 9.0 mph 61% 0.00 in 0.00 W/m2
03:20 72.0 °F 57.8 °F 29.84 in ESE 4.0 mph 11.0 mph 61% 0.00 in 0.00 W/m2
03:25 71.9 °F 58.2 °F 29.84 in ESE 4.0 mph 8.0 mph 62% 0.00 in 0.00 W/m2
03:30 71.9 °F 58.2 °F 29.84 in Calm   12.0 mph 62% 0.00 in 0.00 W/m2
03:35 71.8 °F 58.1 °F 29.84 in East 8.0 mph 11.0 mph 62% 0.00 in 0.00 W/m2
03:40 71.8 °F 58.1 °F 29.84 in ESE 4.0 mph 12.0 mph 62% 0.00 in 0.00 W/m2
03:45 71.8 °F 58.1 °F 29.84 in East 8.0 mph 12.0 mph 62% 0.00 in 0.00 W/m2
03:50 71.8 °F 58.1 °F 29.84 in ESE 5.0 mph 13.0 mph 62% 0.00 in 0.00 W/m2
03:55 71.8 °F 58.1 °F 29.84 in ESE 2.0 mph 14.0 mph 62% 0.00 in 0.00 W/m2
04:00 71.8 °F 58.1 °F 29.84 in ESE 6.0 mph 11.0 mph 62% 0.00 in 0.00 W/m2
04:05 71.8 °F 58.1 °F 29.84 in ESE 6.0 mph 11.0 mph 62% 0.00 in 0.00 W/m2
04:06 71.8 °F 58.1 °F 29.84 in ESE 8.0 mph 8.0 mph 62% 0.00 in 0.00 W/m2
04:11 71.9 °F 57.7 °F 29.84 in East 11.0 mph 11.0 mph 61% 0.00 in 0.00 W/m2
04:16 71.9 °F 57.7 °F 29.84 in East 4.0 mph 4.0 mph 61% 0.00 in 0.00 W/m2
04:21 71.9 °F 57.7 °F 29.84 in East 5.0 mph 5.0 mph 61% 0.00 in 0.00 W/m2
04:26 71.9 °F 57.7 °F 29.84 in East 7.0 mph 8.0 mph 61% 0.00 in 0.00 W/m2
04:36 71.9 °F 57.7 °F 29.84 in ESE 6.0 mph 7.0 mph 61% 0.00 in 0.00 W/m2
04:41 71.9 °F 57.3 °F 29.84 in ESE 5.0 mph 7.0 mph 60% 0.00 in 0.00 W/m2
04:46 71.9 °F 57.3 °F 29.84 in Calm   1.0 mph 60% 0.00 in 0.00 W/m2
04:56 72.0 °F 57.4 °F 29.84 in East 5.0 mph 5.0 mph 60% 0.00 in 0.00 W/m2
05:01 72.0 °F 57.4 °F 29.84 in East 1.0 mph 8.0 mph 60% 0.00 in 0.00 W/m2
05:06 72.0 °F 57.4 °F 29.84 in ESE 5.0 mph 8.0 mph 60% 0.00 in 0.00 W/m2
05:11 71.9 °F 57.3 °F 29.84 in ESE 1.0 mph 8.0 mph 60% 0.00 in 0.00 W/m2
05:16 71.9 °F 56.8 °F 29.84 in ESE 5.0 mph 7.0 mph 59% 0.00 in 0.00 W/m2
05:21 71.9 °F 56.8 °F 29.84 in Calm   4.0 mph 59% 0.00 in 0.00 W/m2
05:24 71.9 °F 56.8 °F 29.84 in ESE 4.0 mph 8.0 mph 59% 0.00 in 0.00 W/m2
05:29 71.9 °F 56.8 °F 29.84 in ESE 6.0 mph 8.0 mph 59% 0.00 in 0.00 W/m2
05:34 71.9 °F 56.8 °F 29.84 in ESE 2.0 mph 12.0 mph 59% 0.00 in 0.00 W/m2
05:39 71.9 °F 56.8 °F 29.84 in ESE 2.0 mph 8.0 mph 59% 0.00 in 0.00 W/m2
05:44 71.8 °F 56.7 °F 29.84 in ESE 6.0 mph 7.0 mph 59% 0.00 in 0.00 W/m2
05:49 71.9 °F 56.8 °F 29.84 in ESE 5.0 mph 9.0 mph 59% 0.00 in 0.00 W/m2
05:54 71.8 °F 56.2 °F 29.84 in ESE 4.0 mph 12.0 mph 58% 0.00 in 0.00 W/m2
05:59 71.8 °F 56.2 °F 29.85 in East 2.0 mph 13.0 mph 58% 0.00 in 0.00 W/m2
06:04 71.8 °F 55.8 °F 29.85 in Calm   13.0 mph 57% 0.00 in 0.00 W/m2
06:09 71.7 °F 56.6 °F 29.85 in Calm   9.0 mph 59% 0.00 in 0.00 W/m2
06:14 71.5 °F 56.4 °F 29.85 in Calm     59% 0.00 in 0.00 W/m2
06:19 71.3 °F 56.2 °F 29.85 in Calm     59% 0.00 in 0.00 W/m2
06:24 71.1 °F 56.5 °F 29.86 in Calm   6.0 mph 60% 0.00 in 0.00 W/m2
06:29 71.0 °F 56.4 °F 29.86 in East 4.0 mph 4.0 mph 60% 0.00 in 0.00 W/m2
06:34 70.8 °F 56.2 °F 29.86 in Calm   7.0 mph 60% 0.00 in 5.00 W/m2
06:39 70.7 °F 56.2 °F 29.86 in Calm   5.0 mph 60% 0.00 in 7.00 W/m2
06:44 70.6 °F 56.5 °F 29.86 in Calm     61% 0.00 in 11.00 W/m2
06:49 70.4 °F 56.3 °F 29.86 in Calm     61% 0.00 in 12.00 W/m2
06:54 70.2 °F 56.1 °F 29.86 in Calm     61% 0.00 in 18.00 W/m2
06:59 70.1 °F 56.0 °F 29.86 in Calm     61% 0.00 in 23.00 W/m2
07:04 70.0 °F 56.0 °F 29.86 in Calm   1.0 mph 61% 0.00 in 28.00 W/m2
07:09 70.0 °F 56.0 °F 29.86 in Calm   4.0 mph 61% 0.00 in 35.00 W/m2
07:14 69.9 °F 56.3 °F 29.86 in East 2.0 mph 6.0 mph 62% 0.00 in 44.00 W/m2
07:19 69.7 °F 56.1 °F 29.86 in Calm   6.0 mph 62% 0.00 in 53.00 W/m2
07:24 69.5 °F 56.4 °F 29.87 in Calm   1.0 mph 63% 0.00 in 62.00 W/m2
07:29 69.4 °F 56.3 °F 29.87 in East 6.0 mph 7.0 mph 63% 0.00 in 74.00 W/m2
07:34 69.3 °F 56.2 °F 29.87 in Calm   2.0 mph 63% 0.00 in 86.00 W/m2
07:39 69.3 °F 56.2 °F 29.88 in Calm     63% 0.00 in 102.00 W/m2
07:44 69.2 °F 56.5 °F 29.88 in Calm     64% 0.00 in 118.00 W/m2
07:49 69.3 °F 56.6 °F 29.88 in Calm     64% 0.00 in 134.00 W/m2
07:54 69.3 °F 57.0 °F 29.88 in Calm     65% 0.00 in 153.00 W/m2
07:59 69.3 °F 57.0 °F 29.88 in Calm     65% 0.00 in 171.00 W/m2
08:04 69.4 °F 57.6 °F 29.88 in Calm     66% 0.00 in 188.00 W/m2
08:09 69.4 °F 58.0 °F 29.88 in Calm     67% 0.00 in 204.00 W/m2
08:14 69.4 °F 58.0 °F 29.88 in Calm     67% 0.00 in 221.00 W/m2
08:19 69.4 °F 58.0 °F 29.88 in Calm     67% 0.00 in 237.00 W/m2
08:24 69.5 °F 58.5 °F 29.88 in Calm     68% 0.00 in 253.00 W/m2
08:29 69.5 °F 58.1 °F 29.88 in Calm   4.0 mph 67% 0.00 in 269.00 W/m2
08:34 69.7 °F 58.7 °F 29.89 in Calm   5.0 mph 68% 0.00 in 287.00 W/m2
08:39 69.8 °F 58.4 °F 29.89 in Calm   4.0 mph 67% 0.00 in 302.00 W/m2
08:44 69.9 °F 58.5 °F 29.88 in East 5.0 mph 7.0 mph 67% 0.00 in 318.00 W/m2
08:49 70.1 °F 59.1 °F 29.88 in Calm     68% 0.00 in 332.00 W/m2
08:54 70.2 °F 58.3 °F 29.89 in Calm     66% 0.00 in 345.00 W/m2
08:59 70.4 °F 57.7 °F 29.89 in East 2.0 mph 6.0 mph 64% 0.00 in 362.00 W/m2
09:04 70.6 °F 57.4 °F 29.90 in Calm   5.0 mph 63% 0.00 in 374.00 W/m2
09:09 70.7 °F 57.5 °F 29.90 in Calm   5.0 mph 63% 0.00 in 392.00 W/m2
09:14 71.0 °F 57.8 °F 29.90 in East 1.0 mph 6.0 mph 63% 0.00 in 406.00 W/m2
09:19 71.3 °F 58.1 °F 29.90 in Calm   1.0 mph 63% 0.00 in 424.00 W/m2
09:24 71.6 °F 58.8 °F 29.90 in East 6.0 mph 6.0 mph 64% 0.00 in 436.00 W/m2
09:29 71.8 °F 59.0 °F 29.90 in Calm   6.0 mph 64% 0.00 in 448.00 W/m2
09:35 71.9 °F 58.6 °F 29.90 in Calm   1.0 mph 63% 0.00 in 462.00 W/m2
09:40 72.1 °F 58.8 °F 29.91 in ESE 6.0 mph 8.0 mph 63% 0.00 in 478.00 W/m2
09:45 72.3 °F 59.5 °F 29.91 in SE 7.0 mph 9.0 mph 64% 0.00 in 490.00 W/m2
09:50 72.5 °F 59.2 °F 29.91 in Calm   6.0 mph 63% 0.00 in 504.00 W/m2
09:55 72.7 °F 58.9 °F 29.91 in Calm   7.0 mph 62% 0.00 in 517.00 W/m2
09:56 72.8 °F 59.0 °F 29.91 in Calm     62% 0.00 in 522.00 W/m2
10:01 73.0 °F 59.7 °F 29.91 in SSE 1.0 mph 1.0 mph 63% 0.00 in 531.00 W/m2
10:06 73.1 °F 59.8 °F 29.92 in Calm   4.0 mph 63% 0.00 in 548.00 W/m2
10:11 73.4 °F 60.0 °F 29.92 in Calm     63% 0.00 in 561.00 W/m2
10:17 73.5 °F 58.8 °F 29.92 in Calm     60% 0.00 in 571.00 W/m2
10:22 73.8 °F 60.0 °F 29.92 in Calm   2.0 mph 62% 0.00 in 582.00 W/m2
10:27 74.2 °F 60.4 °F 29.92 in Calm     62% 0.00 in 594.00 W/m2
10:32 74.5 °F 60.2 °F 29.92 in Calm   7.0 mph 61% 0.00 in 605.00 W/m2
10:37 74.7 °F 59.9 °F 29.92 in Calm   1.0 mph 60% 0.00 in 613.00 W/m2
10:42 74.9 °F 60.1 °F 29.92 in South 5.0 mph 5.0 mph 60% 0.00 in 624.00 W/m2
10:47 75.2 °F 60.4 °F 29.92 in Calm   6.0 mph 60% 0.00 in 629.00 W/m2
10:52 75.5 °F 61.1 °F 29.92 in Calm     61% 0.00 in 640.00 W/m2
10:57 75.8 °F 61.4 °F 29.93 in SW 4.0 mph 8.0 mph 61% 0.00 in 652.00 W/m2
11:02 76.0 °F 60.7 °F 29.93 in Calm   1.0 mph 59% 0.00 in 656.00 W/m2
11:07 76.3 °F 60.9 °F 29.93 in SSW 4.0 mph 4.0 mph 59% 0.00 in 668.00 W/m2
11:12 76.6 °F 62.2 °F 29.93 in SSW 5.0 mph 5.0 mph 61% 0.00 in 675.00 W/m2
11:17 76.8 °F 61.9 °F 29.93 in Calm   2.0 mph 60% 0.00 in 684.00 W/m2
11:22 77.1 °F 61.7 °F 29.93 in Calm   6.0 mph 59% 0.00 in 689.00 W/m2
11:27 77.4 °F 62.4 °F 29.93 in SSW 1.0 mph 4.0 mph 60% 0.00 in 694.00 W/m2
11:32 77.8 °F 62.3 °F 29.93 in SSW 5.0 mph 8.0 mph 59% 0.00 in 698.00 W/m2
11:37 77.9 °F 62.0 °F 29.93 in SW 1.0 mph 1.0 mph 58% 0.00 in 708.00 W/m2
11:42 78.2 °F 62.2 °F 29.93 in Calm     58% 0.00 in 712.00 W/m2
11:47 78.5 °F 62.5 °F 29.93 in SW 1.0 mph 5.0 mph 58% 0.00 in 717.00 W/m2
11:52 78.8 °F 62.3 °F 29.93 in SSE 7.0 mph 12.0 mph 57% 0.00 in 724.00 W/m2
11:57 79.2 °F 62.7 °F 29.93 in SW 1.0 mph 7.0 mph 57% 0.00 in 724.00 W/m2
12:02 79.5 °F 62.5 °F 29.93 in SSW 7.0 mph 11.0 mph 56% 0.00 in 744.00 W/m2
12:07 79.7 °F 62.6 °F 29.93 in SW 1.0 mph 9.0 mph 56% 0.00 in 731.00 W/m2
12:12 79.9 °F 62.8 °F 29.93 in South 3.0 mph 4.0 mph 56% 0.00 in 534.00 W/m2
12:17 80.2 °F 63.1 °F 29.93 in SSW 7.0 mph 9.0 mph 56% 0.00 in 631.00 W/m2
12:22 80.6 °F 63.5 °F 29.93 in Calm   3.0 mph 56% 0.00 in 816.00 W/m2
12:27 80.9 °F 63.2 °F 29.93 in SSW 4.0 mph 9.0 mph 55% 0.00 in 788.00 W/m2
12:32 81.4 °F 63.7 °F 29.93 in Calm   3.0 mph 55% 0.00 in 773.00 W/m2
12:37 81.9 °F 64.2 °F 29.93 in SW 2.0 mph 4.0 mph 55% 0.00 in 786.00 W/m2
12:42 82.4 °F 64.1 °F 29.92 in WSW 3.0 mph 9.0 mph 54% 0.00 in 809.00 W/m2
12:47 82.7 °F 63.8 °F 29.92 in SW 3.0 mph 6.0 mph 53% 0.00 in 879.00 W/m2
12:52 82.9 °F 64.0 °F 29.93 in Calm   7.0 mph 53% 0.00 in 517.00 W/m2
12:57 83.0 °F 64.1 °F 29.93 in SSW 4.0 mph 7.0 mph 53% 0.00 in 830.00 W/m2
13:02 83.3 °F 63.9 °F 29.92 in SSW 5.0 mph 9.0 mph 52% 0.00 in 578.00 W/m2
13:07 83.5 °F 64.0 °F 29.92 in Calm   8.0 mph 52% 0.00 in 740.00 W/m2
13:08 83.5 °F 64.0 °F 29.92 in Calm   8.0 mph 52% 0.00 in 740.00 W/m2
13:13 83.7 °F 64.2 °F 29.92 in Calm   5.0 mph 52% 0.00 in 840.00 W/m2
13:18 83.7 °F 63.7 °F 29.92 in SW 4.0 mph 6.0 mph 51% 0.00 in 265.00 W/m2
13:23 83.7 °F 64.2 °F 29.92 in SSW 3.0 mph 8.0 mph 52% 0.00 in 272.00 W/m2
13:28 83.5 °F 64.0 °F 29.92 in Calm   9.0 mph 52% 0.00 in 271.00 W/m2
13:33 83.6 °F 64.1 °F 29.92 in Calm   6.0 mph 52% 0.00 in 842.00 W/m2
13:38 83.7 °F 64.2 °F 29.92 in South 3.0 mph 11.0 mph 52% 0.00 in 246.00 W/m2
13:43 83.8 °F 64.3 °F 29.92 in SW 5.0 mph 11.0 mph 52% 0.00 in 744.00 W/m2
13:48 83.7 °F 64.2 °F 29.92 in SSW 2.0 mph 10.0 mph 52% 0.00 in 819.00 W/m2
13:53 83.7 °F 64.8 °F 29.92 in SW 7.0 mph 10.0 mph 53% 0.00 in 192.00 W/m2
13:58 83.7 °F 64.8 °F 29.92 in South 2.0 mph 7.0 mph 53% 0.00 in 780.00 W/m2
14:03 83.7 °F 64.8 °F 29.92 in South 2.0 mph 7.0 mph 53% 0.00 in 779.00 W/m2
14:08 83.7 °F 64.8 °F 29.92 in SW 4.0 mph 7.0 mph 53% 0.00 in 789.00 W/m2
14:13 83.8 °F 64.9 °F 29.92 in SW 4.0 mph 11.0 mph 53% 0.00 in 761.00 W/m2
14:18 84.0 °F 65.1 °F 29.92 in South 7.0 mph 11.0 mph 53% 0.00 in 749.00 W/m2
14:23 84.2 °F 64.7 °F 29.92 in South 5.0 mph 6.0 mph 52% 0.00 in 738.00 W/m2
14:28 84.4 °F 64.9 °F 29.92 in South 8.0 mph 10.0 mph 52% 0.00 in 272.00 W/m2
14:33 84.5 °F 64.4 °F 29.91 in SSE 8.0 mph 14.0 mph 51% 0.00 in 248.00 W/m2
14:38 84.6 °F 64.5 °F 29.92 in South 8.0 mph 9.0 mph 51% 0.00 in 204.00 W/m2
14:43 84.5 °F 64.4 °F 29.92 in SSW 4.0 mph 12.0 mph 51% 0.00 in 220.00 W/m2
14:48 84.3 °F 64.8 °F 29.92 in SSW 8.0 mph 12.0 mph 52% 0.00 in 197.00 W/m2
14:53 83.9 °F 64.4 °F 29.93 in Calm   11.0 mph 52% 0.00 in 220.00 W/m2
14:59 83.6 °F 64.7 °F 29.93 in SW 8.0 mph 13.0 mph 53% 0.00 in 204.00 W/m2
15:03 83.3 °F 64.4 °F 29.93 in South 6.0 mph 9.0 mph 53% 0.00 in 199.00 W/m2
15:09 82.9 °F 64.6 °F 29.93 in South 6.0 mph 10.0 mph 54% 0.00 in 230.00 W/m2
15:14 82.6 °F 64.8 °F 29.93 in SSE 2.0 mph 8.0 mph 55% 0.00 in 258.00 W/m2
15:19 82.3 °F 65.1 °F 29.93 in Calm   10.0 mph 56% 0.00 in 250.00 W/m2
15:24 82.0 °F 64.8 °F 29.92 in Calm   1.0 mph 56% 0.00 in 264.00 W/m2
15:29 81.6 °F 64.4 °F 29.92 in Calm     56% 0.00 in 258.00 W/m2
15:34 81.2 °F 64.5 °F 29.92 in Calm     57% 0.00 in 178.00 W/m2
15:39 80.8 °F 65.2 °F 29.93 in Calm     59% 0.00 in 111.00 W/m2
15:44 80.6 °F 64.5 °F 29.93 in SSE 1.0 mph 1.0 mph 58% 0.00 in 72.00 W/m2
15:49 80.3 °F 65.2 °F 29.93 in Calm     60% 0.00 in 39.00 W/m2
15:54 80.1 °F 65.0 °F 29.94 in Calm     60% 0.00 in 28.00 W/m2
15:59 80.0 °F 64.9 °F 29.95 in SSE 2.0 mph 2.0 mph 60% 0.00 in 28.00 W/m2
16:04 79.8 °F 66.6 °F 29.95 in Calm     64% 0.00 in 33.00 W/m2
16:09 79.2 °F 67.3 °F 29.95 in Calm   1.0 mph 67% 0.00 in 37.00 W/m2
16:14 78.3 °F 68.1 °F 29.95 in Calm     71% 0.00 in 42.00 W/m2
16:19 76.5 °F 68.0 °F 29.94 in Calm   1.0 mph 75% 0.15 in 54.00 W/m2
16:24 75.9 °F 68.2 °F 29.94 in Calm     77% 0.09 in 72.00 W/m2
16:29 75.5 °F 68.2 °F 29.94 in Calm     78% 0.05 in 83.00 W/m2
16:34 75.0 °F 67.7 °F 29.94 in Calm     78% 0.05 in 93.00 W/m2
16:39 74.5 °F 67.6 °F 29.93 in Calm     79% 0.05 in 97.00 W/m2
16:44 74.1 °F 67.5 °F 29.93 in Calm     80% 0.04 in 100.00 W/m2
16:49 73.7 °F 67.5 °F 29.93 in Calm   1.0 mph 81% 0.00 in 102.00 W/m2
16:54 73.3 °F 67.5 °F 29.93 in ESE 5.0 mph 6.0 mph 82% 0.00 in 109.00 W/m2
16:59 73.0 °F 67.5 °F 29.92 in East 5.0 mph 7.0 mph 83% 0.00 in 123.00 W/m2
17:04 72.8 °F 67.3 °F 29.92 in East 3.0 mph 5.0 mph 83% 0.00 in 134.00 W/m2
17:09 72.7 °F 67.2 °F 29.92 in Calm   7.0 mph 83% 0.00 in 142.00 W/m2
17:14 72.5 °F 67.4 °F 29.92 in NE 4.0 mph 7.0 mph 84% 0.00 in 155.00 W/m2
17:19 72.3 °F 67.2 °F 29.92 in Calm   6.0 mph 84% 0.00 in 234.00 W/m2
17:24 72.4 °F 67.3 °F 29.92 in Calm     84% 0.00 in 199.00 W/m2
17:29 72.4 °F 66.9 °F 29.92 in Calm     83% 0.00 in 199.00 W/m2
17:34 72.7 °F 67.6 °F 29.92 in Calm   6.0 mph 84% 0.00 in 127.00 W/m2
17:39 73.0 °F 67.9 °F 29.92 in Calm   5.0 mph 84% 0.00 in 160.00 W/m2
17:44 73.1 °F 68.0 °F 29.92 in Calm     84% 0.00 in 113.00 W/m2
17:49 73.2 °F 68.1 °F 29.92 in Calm     84% 0.00 in 137.00 W/m2
17:54 73.4 °F 67.9 °F 29.92 in Calm     83% 0.00 in 181.00 W/m2
17:59 73.5 °F 68.4 °F 29.92 in Calm     84% 0.00 in 158.00 W/m2
18:04 73.5 °F 68.4 °F 29.92 in Calm     84% 0.00 in 176.00 W/m2
18:10 73.6 °F 68.1 °F 29.92 in Calm     83% 0.00 in 132.00 W/m2
18:15 73.7 °F 68.6 °F 29.93 in NE 2.0 mph 5.0 mph 84% 0.00 in 97.00 W/m2
18:20 73.9 °F 68.8 °F 29.92 in ENE 3.0 mph 8.0 mph 84% 0.00 in 95.00 W/m2
18:25 74.0 °F 68.9 °F 29.92 in East 2.0 mph 9.0 mph 84% 0.00 in 86.00 W/m2
18:30 74.1 °F 69.0 °F 29.93 in ESE 4.0 mph 8.0 mph 84% 0.00 in 77.00 W/m2
18:35 74.2 °F 68.7 °F 29.93 in ESE 6.0 mph 8.0 mph 83% 0.00 in 62.00 W/m2
18:40 74.2 °F 68.4 °F 29.93 in ESE 6.0 mph 8.0 mph 82% 0.00 in 39.00 W/m2
18:45 74.3 °F 68.4 °F 29.94 in ESE 7.0 mph 9.0 mph 82% 0.00 in 30.00 W/m2
18:50 74.3 °F 68.1 °F 29.94 in ESE 5.0 mph 11.0 mph 81% 0.00 in 25.00 W/m2
18:55 74.2 °F 68.0 °F 29.94 in Calm   11.0 mph 81% 0.00 in 19.00 W/m2
19:00 74.0 °F 67.8 °F 29.94 in ESE 7.0 mph 8.0 mph 81% 0.00 in 14.00 W/m2
19:05 73.9 °F 67.7 °F 29.95 in ESE 6.0 mph 9.0 mph 81% 0.00 in 11.00 W/m2
19:10 73.9 °F 67.7 °F 29.95 in ESE 5.0 mph 8.0 mph 81% 0.00 in 7.00 W/m2
19:15 73.8 °F 67.6 °F 29.95 in ESE 5.0 mph 9.0 mph 81% 0.00 in 5.00 W/m2
19:20 73.7 °F 67.5 °F 29.95 in ESE 1.0 mph 12.0 mph 81% 0.00 in 0.00 W/m2
19:25 73.7 °F 67.5 °F 29.94 in ESE 7.0 mph 12.0 mph 81% 0.00 in 0.00 W/m2
19:30 73.6 °F 67.4 °F 29.94 in East 9.0 mph 13.0 mph 81% 0.00 in 0.00 W/m2
19:35 73.5 °F 67.3 °F 29.94 in ESE 2.0 mph 14.0 mph 81% 0.00 in 0.00 W/m2
19:40 73.4 °F 66.9 °F 29.93 in East 10.0 mph 16.0 mph 80% 0.00 in 0.00 W/m2
19:45 73.3 °F 66.4 °F 29.92 in ENE 5.0 mph 11.0 mph 79% 0.00 in 0.00 W/m2
19:50 73.2 °F 66.3 °F 29.89 in NNW 10.0 mph 12.0 mph 79% 0.00 in 0.00 W/m2
19:55 72.9 °F 65.7 °F 29.89 in Calm   11.0 mph 78% 0.00 in 0.00 W/m2
20:00 72.9 °F 66.0 °F 29.90 in Calm   4.0 mph 79% 0.00 in 0.00 W/m2
20:05 73.0 °F 66.1 °F 29.91 in Calm     79% 0.00 in 0.00 W/m2
20:10 73.0 °F 66.1 °F 29.92 in Calm   7.0 mph 79% 0.00 in 0.00 W/m2
20:16 72.9 °F 65.7 °F 29.93 in NNE 1.0 mph 8.0 mph 78% 0.00 in 0.00 W/m2
20:21 72.9 °F 65.7 °F 29.94 in East 3.0 mph 12.0 mph 78% 0.00 in 0.00 W/m2
20:26 72.9 °F 65.7 °F 29.94 in Calm   16.0 mph 78% 0.00 in 0.00 W/m2
20:31 73.0 °F 65.4 °F 29.94 in ENE 7.0 mph 16.0 mph 77% 0.00 in 0.00 W/m2
20:36 73.0 °F 65.4 °F 29.94 in East 8.0 mph 12.0 mph 77% 0.00 in 0.00 W/m2
20:41 73.0 °F 65.0 °F 29.94 in ESE 16.0 mph 16.0 mph 76% 0.00 in 0.00 W/m2
20:46 73.1 °F 65.1 °F 29.94 in ESE 1.0 mph 18.0 mph 76% 0.00 in 0.00 W/m2
20:51 73.1 °F 64.7 °F 29.95 in ESE 4.0 mph 9.0 mph 75% 0.00 in 0.00 W/m2
20:56 73.2 °F 64.4 °F 29.95 in SE 2.0 mph 10.0 mph 74% 0.00 in 0.00 W/m2
21:01 73.3 °F 64.1 °F 29.94 in SSE 7.0 mph 12.0 mph 73% 0.00 in 0.00 W/m2
21:06 73.3 °F 64.1 °F 29.94 in SSE 6.0 mph 9.0 mph 73% 0.00 in 0.00 W/m2
21:11 73.4 °F 64.2 °F 29.94 in SSE 6.0 mph 9.0 mph 73% 0.00 in 0.00 W/m2
21:16 73.4 °F 64.2 °F 29.94 in SSE 1.0 mph 8.0 mph 73% 0.00 in 0.00 W/m2
21:21 73.4 °F 63.8 °F 29.95 in Calm   8.0 mph 72% 0.00 in 0.00 W/m2
21:26 73.2 °F 63.6 °F 29.95 in Calm   7.0 mph 72% 0.00 in 0.00 W/m2
21:31 73.0 °F 63.5 °F 29.95 in Calm   1.0 mph 72% 0.00 in 0.00 W/m2
21:36 72.9 °F 63.8 °F 29.95 in Calm   7.0 mph 73% 0.00 in 0.00 W/m2
21:41 72.8 °F 63.3 °F 29.95 in SE 5.0 mph 6.0 mph 72% 0.00 in 0.00 W/m2
21:46 72.8 °F 63.3 °F 29.95 in Calm   7.0 mph 72% 0.00 in 0.00 W/m2
21:51 72.7 °F 63.2 °F 29.95 in ESE 5.0 mph 6.0 mph 72% 0.00 in 0.00 W/m2
21:56 72.6 °F 63.1 °F 29.95 in ESE 4.0 mph 8.0 mph 72% 0.00 in 0.00 W/m2
22:01 72.6 °F 62.7 °F 29.95 in ESE 7.0 mph 9.0 mph 71% 0.00 in 0.00 W/m2
22:06 72.5 °F 63.0 °F 29.95 in ESE 5.0 mph 7.0 mph 72% 0.00 in 0.00 W/m2
22:11 72.4 °F 62.9 °F 29.95 in ESE 5.0 mph 8.0 mph 72% 0.00 in 0.00 W/m2
22:16 72.2 °F 62.7 °F 29.95 in ESE 2.0 mph 9.0 mph 72% 0.00 in 0.00 W/m2
22:21 72.1 °F 63.0 °F 29.95 in East 9.0 mph 11.0 mph 73% 0.00 in 0.00 W/m2
22:26 72.0 °F 62.9 °F 29.95 in ESE 4.0 mph 9.0 mph 73% 0.00 in 0.00 W/m2
22:31 71.9 °F 62.8 °F 29.95 in ESE 7.0 mph 13.0 mph 73% 0.00 in 0.00 W/m2
22:36 71.9 °F 63.2 °F 29.95 in ESE 6.0 mph 13.0 mph 74% 0.00 in 0.00 W/m2
22:41 71.9 °F 63.2 °F 29.95 in ESE 5.0 mph 11.0 mph 74% 0.00 in 0.00 W/m2
22:46 71.8 °F 63.1 °F 29.95 in ESE 7.0 mph 7.0 mph 74% 0.00 in 0.00 W/m2
22:51 71.8 °F 63.1 °F 29.95 in ESE 7.0 mph 8.0 mph 74% 0.00 in 0.00 W/m2
22:56 71.8 °F 63.1 °F 29.95 in Calm   8.0 mph 74% 0.00 in 0.00 W/m2
23:01 71.7 °F 63.0 °F 29.95 in SE 6.0 mph 9.0 mph 74% 0.00 in 0.00 W/m2
23:07 71.7 °F 63.0 °F 29.95 in ESE 12.0 mph 14.0 mph 74% 0.00 in 0.00 W/m2
23:12 71.7 °F 63.0 °F 29.95 in Calm   8.0 mph 74% 0.00 in 0.00 W/m2
23:17 71.7 °F 63.0 °F 29.95 in ESE 6.0 mph 9.0 mph 74% 0.00 in 0.00 W/m2
23:22 71.7 °F 63.0 °F 29.95 in ESE 5.0 mph 9.0 mph 74% 0.00 in 0.00 W/m2
23:27 71.7 °F 63.0 °F 29.94 in ESE 8.0 mph 9.0 mph 74% 0.00 in 0.00 W/m2
23:32 71.7 °F 62.6 °F 29.94 in Calm   2.0 mph 73% 0.00 in 0.00 W/m2
23:37 71.7 °F 63.0 °F 29.95 in Calm   5.0 mph 74% 0.00 in 0.00 W/m2
23:42 71.7 °F 63.0 °F 29.94 in Calm   6.0 mph 74% 0.00 in 0.00 W/m2
23:47 71.6 °F 62.5 °F 29.94 in Calm     73% 0.00 in 0.00 W/m2
23:52 71.5 °F 62.4 °F 29.94 in Calm     73% 0.00 in 0.00 W/m2
23:57 71.4 °F 62.7 °F 29.94 in Calm   1.0 mph 74% 0.00 in 0.00 W/m2
Foresthill Weather
 WU-history PHP script courtesy of   Juneau County Weather.
powered by Cumulus v1.9.3 (1059)
Ambient Weather VWS v14.00
Top Contact Website Map Copyright © 2007 - 2018 Foresthillweather.com Never base important decisions on this or any weather information obtained from the Internet